"datetime","# probes","# resolvers","can_ipv6","can_ipv6_prbs","can_tcp","can_tcp_prbs","can_tcp6","can_tcp6_prbs","does_ecs","does_ecs_prbs","does_flagday","does_flagday_prbs","does_rov4","does_rov4_prbs","does_rov6","does_rov6_prbs","does_qnamemin","doesnt_qnamemin","does_qnamemin_prbs","doesnt_qnamemin_prbs","does_nxdomain","doesnt_nxdomain","does_nxdomain_prbs","doesnt_nxdomain_prbs","has_ta_19036","hasnt_ta_19036","has_ta_19036_prbs","hasnt_ta_19036_prbs","has_ta_20326","hasnt_ta_20326","has_ta_20326_prbs","hasnt_ta_20326_prbs","can_rsamd5","cannot_rsamd5","broken_rsamd5","can_rsamd5_prbs","cannot_rsamd5_prbs","broken_rsamd5_prbs","can_dsa","cannot_dsa","broken_dsa","can_dsa_prbs","cannot_dsa_prbs","broken_dsa_prbs","can_rsasha1","cannot_rsasha1","broken_rsasha1","can_rsasha1_prbs","cannot_rsasha1_prbs","broken_rsasha1_prbs","can_dsansec3","cannot_dsansec3","broken_dsansec3","can_dsansec3_prbs","cannot_dsansec3_prbs","broken_dsansec3_prbs","can_rsansec3","cannot_rsansec3","broken_rsansec3","can_rsansec3_prbs","cannot_rsansec3_prbs","broken_rsansec3_prbs","can_rsasha256","cannot_rsasha256","broken_rsasha256","can_rsasha256_prbs","cannot_rsasha256_prbs","broken_rsasha256_prbs","can_rsasha512","cannot_rsasha512","broken_rsasha512","can_rsasha512_prbs","cannot_rsasha512_prbs","broken_rsasha512_prbs","can_eccgost","cannot_eccgost","broken_eccgost","can_eccgost_prbs","cannot_eccgost_prbs","broken_eccgost_prbs","can_ecdsa256","cannot_ecdsa256","broken_ecdsa256","can_ecdsa256_prbs","cannot_ecdsa256_prbs","broken_ecdsa256_prbs","can_ecdsa384","cannot_ecdsa384","broken_ecdsa384","can_ecdsa384_prbs","cannot_ecdsa384_prbs","broken_ecdsa384_prbs","can_ed25519","cannot_ed25519","broken_ed25519","can_ed25519_prbs","cannot_ed25519_prbs","broken_ed25519_prbs","can_ed448","cannot_ed448","broken_ed448","can_ed448_prbs","cannot_ed448_prbs","broken_ed448_prbs","can_gost","cannot_gost","broken_gost","can_gost_prbs","cannot_gost_prbs","broken_gost_prbs","can_sha384","cannot_sha384","broken_sha384","can_sha384_prbs","cannot_sha384_prbs","broken_sha384_prbs","is_internal","is_forwarding","is_external","is_internal_prbs","is_forwarding_prbs","is_external_prbs"
2017-06-20T23:59:59Z,21,29,23,17,29,21,22,16,5,3,0,0,0,0,0,0,2,27,1,20,0,29,0,21,0,0,0,0,0,0,0,0,14,10,5,12,6,3,18,11,0,15,7,0,23,6,0,18,4,0,18,11,0,15,7,0,23,6,0,18,4,0,23,6,0,18,4,0,23,6,0,18,4,0,0,29,0,0,21,0,23,6,0,18,4,0,23,6,0,18,4,0,0,29,0,0,21,0,0,29,0,0,21,0,5,24,0,3,18,0,23,6,0,18,4,0,22,3,4,17,2,2
2017-06-21T23:59:59Z,21,28,22,17,28,21,21,16,5,4,0,0,0,0,0,0,2,26,1,20,0,28,0,21,0,0,0,0,0,0,0,0,14,10,4,13,6,3,17,11,0,14,8,0,22,6,0,18,4,0,17,11,0,14,8,0,22,6,0,18,4,0,22,6,0,18,4,0,22,6,0,18,4,0,0,28,0,1,21,0,22,6,0,18,4,0,22,6,0,18,4,0,0,28,0,0,21,0,0,28,0,0,21,0,4,24,0,4,18,0,22,6,0,18,4,0,22,3,3,17,2,2
2017-06-22T23:59:59Z,21,29,23,17,29,21,22,16,6,4,0,0,0,0,0,0,2,27,1,20,0,29,0,21,0,0,0,0,0,0,0,0,14,10,5,13,6,3,18,11,0,15,7,0,23,6,0,18,4,0,18,11,0,15,7,0,23,6,0,18,4,0,23,6,0,18,4,0,23,6,0,18,4,0,0,29,0,1,21,0,23,6,0,18,4,0,23,6,0,18,4,0,0,29,0,0,21,0,0,29,0,0,21,0,6,23,0,5,17,0,23,6,0,18,4,0,22,3,4,17,2,2
2017-06-23T23:59:57Z,21,29,23,17,29,21,22,16,6,4,0,0,0,0,0,0,2,27,1,20,0,29,0,21,0,0,0,0,0,0,0,0,14,10,5,13,6,3,18,11,0,15,7,0,23,6,0,18,4,0,18,11,0,15,7,0,23,6,0,18,4,0,23,6,0,18,4,0,23,6,0,18,4,0,0,29,0,1,21,0,23,6,0,18,4,0,23,6,0,18,4,0,0,29,0,0,21,0,0,29,0,0,21,0,5,24,0,4,18,0,23,6,0,18,4,0,22,3,4,17,2,2
2017-06-24T23:59:58Z,21,28,22,17,28,21,21,16,5,4,0,0,0,0,0,0,2,26,1,20,0,28,0,21,0,0,0,0,0,0,0,0,14,10,4,13,6,3,18,10,0,15,7,0,22,6,0,18,4,0,18,10,0,15,7,0,22,6,0,18,4,0,22,6,0,18,4,0,22,6,0,18,4,0,0,28,0,1,21,0,22,6,0,18,4,0,22,6,0,18,4,0,0,28,0,0,21,0,0,28,0,0,21,0,4,24,0,4,18,0,22,6,0,18,4,0,22,3,3,17,2,2
2017-06-25T23:59:59Z,20,26,20,16,26,20,19,15,5,4,0,0,0,0,0,0,0,26,0,20,0,26,0,20,0,0,0,0,0,0,0,0,13,8,5,12,5,4,17,9,0,14,7,0,22,4,0,18,3,0,17,9,0,14,7,0,22,4,0,18,3,0,22,4,0,18,3,0,22,4,0,18,3,0,0,26,0,1,20,0,22,4,0,18,3,0,22,4,0,18,3,0,0,26,0,0,20,0,0,26,0,0,20,0,4,22,0,4,17,0,22,4,0,18,3,0,19,4,3,16,3,2
2017-06-26T23:59:59Z,21,27,21,17,27,21,20,16,6,5,0,0,0,0,0,0,0,27,0,21,0,27,0,21,0,0,0,0,0,0,0,0,14,9,4,13,6,3,18,9,0,16,7,0,22,5,0,19,4,0,18,9,0,16,7,0,22,5,0,19,4,0,22,5,0,19,4,0,22,5,0,19,4,0,0,27,0,2,21,0,22,5,0,19,4,0,22,5,0,19,4,0,0,27,0,0,21,0,0,27,0,0,21,0,4,23,0,5,18,0,22,5,0,19,4,0,21,3,3,17,2,2
2017-06-27T23:59:59Z,21,27,21,17,27,21,20,16,5,4,0,0,0,0,0,0,0,27,0,21,0,27,0,21,0,0,0,0,0,0,0,0,14,9,4,13,6,3,18,9,0,16,7,0,22,5,0,19,4,0,18,9,0,16,7,0,22,5,0,19,4,0,22,5,0,19,4,0,22,5,0,19,4,0,0,27,0,2,21,0,22,5,0,19,4,0,22,5,0,19,4,0,0,27,0,0,21,0,0,27,0,0,21,0,5,22,0,6,17,0,22,5,0,19,4,0,21,3,3,17,2,2
2017-06-28T23:59:59Z,21,27,21,17,27,21,20,16,5,4,0,0,0,0,0,0,0,27,0,21,0,27,0,21,0,0,0,0,0,0,0,0,14,9,4,13,6,3,17,10,0,15,8,0,22,5,0,19,4,0,18,9,0,16,7,0,22,5,0,19,4,0,20,7,0,17,6,0,22,5,0,19,4,0,0,27,0,2,21,0,22,5,0,19,4,0,22,5,0,19,4,0,0,27,0,0,21,0,0,27,0,0,21,0,4,23,0,5,18,0,22,5,0,19,4,0,21,3,3,17,2,2
2017-06-29T23:59:59Z,21,28,22,17,28,21,21,16,5,3,0,0,0,0,0,0,0,28,0,21,0,28,0,21,0,0,0,0,0,0,0,0,14,9,5,13,6,3,18,10,0,16,7,0,23,5,0,19,4,0,18,10,0,16,7,0,23,5,0,19,4,0,21,7,0,18,5,0,23,5,0,19,4,0,0,28,0,2,21,0,23,5,0,19,4,0,23,5,0,19,4,0,0,28,0,0,21,0,0,28,0,0,21,0,5,23,0,5,18,0,23,5,0,19,4,0,21,3,4,17,2,2
2017-06-30T23:59:58Z,21,29,23,17,29,21,22,16,6,4,0,0,0,0,0,0,0,29,0,21,0,29,0,21,0,0,0,0,0,0,0,0,14,10,5,13,6,3,18,11,0,16,7,0,23,6,0,19,4,0,18,11,0,16,7,0,23,6,0,19,4,0,23,6,0,19,4,0,23,6,0,19,4,0,0,29,0,2,21,0,23,6,0,19,4,0,23,6,0,19,4,0,0,29,0,0,21,0,0,29,0,0,21,0,5,24,0,5,18,0,23,6,0,19,4,0,21,4,4,17,3,2
2017-07-01T23:59:59Z,21,28,22,17,28,21,22,17,5,4,0,0,0,0,0,0,0,28,0,21,0,28,0,21,0,0,0,0,0,0,0,0,13,10,5,12,6,4,17,11,0,15,8,0,22,6,0,19,4,0,18,10,0,16,7,0,22,6,0,19,4,0,20,8,0,18,6,0,22,6,0,19,4,0,0,28,0,2,21,0,22,6,0,19,4,0,22,6,0,19,4,0,0,28,0,0,21,0,0,28,0,0,21,0,4,24,0,5,18,0,22,6,0,19,4,0,21,4,3,17,3,2
2017-07-02T23:59:59Z,21,28,22,17,28,21,21,16,4,3,0,0,0,0,0,0,0,28,0,21,0,28,0,21,0,0,0,0,0,0,0,0,14,10,4,13,6,3,17,11,0,15,8,0,22,6,0,19,4,0,17,11,0,15,8,0,22,6,0,19,4,0,22,6,0,19,4,0,22,6,0,19,4,0,0,28,0,2,21,0,22,6,0,19,4,0,22,6,0,19,4,0,0,28,0,0,21,0,0,28,0,0,21,0,4,24,0,5,18,0,22,6,0,19,4,0,22,3,3,17,2,2
2017-07-03T23:59:59Z,21,28,22,17,28,21,21,16,4,3,0,0,0,0,0,0,0,28,0,21,0,28,0,21,0,0,0,0,0,0,0,0,14,10,4,13,6,3,18,10,0,16,7,0,22,6,0,19,4,0,18,10,0,16,7,0,22,6,0,19,4,0,22,6,0,19,4,0,22,6,0,19,4,0,0,28,0,2,21,0,22,6,0,19,4,0,22,6,0,19,4,0,0,28,0,0,21,0,0,28,0,0,21,0,4,24,0,5,18,0,22,6,0,19,4,0,22,3,3,17,2,2
2017-07-04T23:59:59Z,21,29,23,17,29,21,21,16,6,4,0,0,0,0,0,0,0,29,0,21,0,29,0,21,0,0,0,0,0,0,0,0,13,10,6,12,6,4,17,12,0,15,8,0,23,6,0,19,4,0,17,12,0,15,8,0,23,6,0,19,4,0,20,9,0,17,6,0,23,6,0,19,4,0,0,29,0,2,21,0,23,6,0,19,4,0,23,6,0,19,4,0,0,29,0,0,21,0,0,29,0,0,21,0,5,24,0,5,18,0,23,6,0,19,4,0,22,3,4,17,2,2
2017-07-05T23:59:59Z,21,29,23,17,29,21,21,15,6,4,0,0,0,0,0,0,0,29,0,21,0,29,0,21,0,0,0,0,0,0,0,0,14,10,5,13,6,3,18,11,0,16,7,0,23,6,0,19,4,0,17,12,0,15,8,0,23,6,0,19,4,0,21,8,0,19,6,0,23,6,0,19,4,0,0,29,0,2,21,0,23,6,0,19,4,0,23,6,0,19,4,0,0,29,0,0,21,0,0,29,0,0,21,0,5,24,0,5,18,0,23,6,0,19,4,0,22,3,4,17,2,2
2017-07-06T23:59:59Z,21,29,23,17,29,21,21,16,7,5,0,0,0,0,0,0,0,29,0,21,0,29,0,21,0,0,0,0,0,0,0,0,14,10,5,13,6,3,18,11,0,16,7,0,23,6,0,19,4,0,18,11,0,16,7,0,23,6,0,19,4,0,23,6,0,19,4,0,23,6,0,19,4,0,0,29,0,2,21,0,23,6,0,19,4,0,23,6,0,19,4,0,0,29,0,0,21,0,0,29,0,0,21,0,5,24,0,5,18,0,23,6,0,19,4,0,22,3,4,17,2,2
2017-07-07T23:59:59Z,21,28,22,17,28,21,21,16,5,4,0,0,0,0,0,0,0,28,0,21,0,28,0,21,0,0,0,0,0,0,0,0,14,10,4,13,6,3,18,10,0,16,7,0,22,6,0,19,4,0,17,11,0,15,8,0,22,6,0,19,4,0,22,6,0,19,4,0,22,6,0,19,4,0,0,28,0,2,21,0,22,6,0,19,4,0,22,6,0,19,4,0,0,28,0,0,21,0,0,28,0,0,21,0,5,23,0,6,17,0,22,6,0,19,4,0,22,3,3,17,2,2
2017-07-08T23:59:59Z,21,28,22,17,28,21,21,16,5,4,0,0,0,0,0,0,0,28,0,21,0,28,0,21,0,0,0,0,0,0,0,0,14,10,4,13,6,3,18,10,0,16,7,0,22,6,0,19,4,0,18,10,0,16,7,0,22,6,0,19,4,0,22,6,0,19,4,0,22,6,0,19,4,0,0,28,0,2,21,0,22,6,0,19,4,0,22,6,0,19,4,0,0,28,0,0,21,0,0,28,0,0,21,0,5,23,0,6,17,0,22,6,0,19,4,0,22,3,3,17,2,2
2017-07-09T23:59:59Z,21,29,23,17,29,21,22,16,6,4,0,0,0,0,0,0,0,29,0,21,0,29,0,21,0,0,0,0,0,0,0,0,14,10,5,13,6,3,18,11,0,16,7,0,23,6,0,19,4,0,18,11,0,16,7,0,23,6,0,19,4,0,23,6,0,19,4,0,23,6,0,19,4,0,0,29,0,2,21,0,23,6,0,19,4,0,23,6,0,19,4,0,0,29,0,0,21,0,0,29,0,0,21,0,5,24,0,5,18,0,23,6,0,19,4,0,21,4,4,17,3,2
2017-07-10T23:59:59Z,21,28,22,17,28,21,22,17,4,3,0,0,0,0,0,0,0,28,0,21,0,28,0,21,0,0,0,0,0,0,0,0,13,10,5,12,6,4,17,11,0,15,8,0,22,6,0,19,4,0,18,10,0,16,7,0,22,6,0,19,4,0,22,6,0,19,4,0,22,6,0,19,4,0,0,28,0,2,21,0,22,6,0,19,4,0,22,6,0,19,4,0,0,28,0,0,21,0,0,28,0,0,21,0,5,23,0,6,17,0,22,6,0,19,4,0,22,3,3,17,2,2
2017-07-11T23:59:59Z,21,28,22,17,28,21,21,16,6,5,0,0,0,0,0,0,0,28,0,21,0,28,0,21,0,0,0,0,0,0,0,0,14,10,4,13,6,3,18,10,0,16,7,0,22,6,0,19,4,0,18,10,0,16,7,0,22,6,0,19,4,0,22,6,0,19,4,0,22,6,0,19,4,0,0,28,0,2,21,0,22,6,0,19,4,0,22,6,0,19,4,0,0,28,0,0,21,0,0,28,0,0,21,0,4,24,0,5,18,0,22,6,0,19,4,0,22,3,3,17,3,2
2017-07-12T23:59:59Z,21,29,23,17,29,21,22,16,5,3,0,0,0,0,0,0,0,29,0,21,0,29,0,21,0,0,0,0,0,0,0,0,14,10,5,13,6,3,18,11,0,16,7,0,23,6,0,19,4,0,17,12,0,15,8,0,23,6,0,19,4,0,23,6,0,19,4,0,23,6,0,19,4,0,0,29,0,2,21,0,23,6,0,19,4,0,23,6,0,19,4,0,0,29,0,0,21,0,0,29,0,0,21,0,5,24,0,5,18,0,23,6,0,19,4,0,22,3,4,17,2,2
2017-07-13T23:59:59Z,21,28,22,17,28,21,21,16,6,5,0,0,0,0,0,0,0,28,0,21,0,28,0,21,0,0,0,0,0,0,0,0,14,10,4,13,6,3,18,10,0,16,7,0,22,6,0,19,4,0,18,10,0,16,7,0,22,6,0,19,4,0,22,6,0,19,4,0,22,6,0,19,4,0,0,28,0,2,21,0,22,6,0,19,4,0,22,6,0,19,4,0,0,28,0,0,21,0,0,28,0,0,21,0,4,24,0,5,18,0,22,6,0,19,4,0,21,4,3,17,3,2
2017-07-14T23:59:58Z,21,28,22,17,28,21,21,16,6,5,0,0,0,0,0,0,0,28,0,21,0,28,0,21,0,0,0,0,0,0,0,0,14,10,4,13,6,3,18,10,0,16,7,0,22,6,0,19,4,0,18,10,0,16,7,0,22,6,0,19,4,0,22,6,0,19,4,0,22,6,0,19,4,0,0,28,0,2,21,0,22,6,0,19,4,0,22,6,0,19,4,0,0,28,0,0,21,0,0,28,0,0,21,0,4,24,0,5,18,0,22,6,0,19,4,0,21,4,3,17,3,2
2017-07-15T23:59:58Z,21,29,23,17,29,21,23,17,5,3,0,0,0,0,0,0,0,29,0,21,0,29,0,21,0,0,0,0,0,0,0,0,14,10,5,13,6,3,18,11,0,16,7,0,23,6,0,19,4,0,18,11,0,16,7,0,23,6,0,19,4,0,23,6,0,19,4,0,23,6,0,19,4,0,0,29,0,2,21,0,23,6,0,19,4,0,23,6,0,19,4,0,0,29,0,0,21,0,0,29,0,0,21,0,5,24,0,5,18,0,23,6,0,19,4,0,22,3,4,17,2,2
2017-07-16T23:59:59Z,21,28,22,17,28,21,21,16,6,5,0,0,0,0,0,0,0,28,0,21,0,28,0,21,0,0,0,0,0,0,0,0,14,10,4,13,6,3,18,10,0,16,7,0,22,6,0,19,4,0,17,11,0,15,8,0,22,6,0,19,4,0,22,6,0,19,4,0,22,6,0,19,4,0,0,28,0,2,21,0,22,6,0,19,4,0,22,6,0,19,4,0,0,28,0,0,21,0,0,28,0,0,21,0,4,24,0,5,18,0,22,6,0,19,4,0,22,3,3,17,2,2
2017-07-17T23:59:58Z,21,28,22,17,28,21,21,16,5,4,0,0,0,0,0,0,0,28,0,21,0,28,0,21,0,0,0,0,0,0,0,0,13,10,5,12,6,4,17,11,0,15,8,0,22,6,0,19,4,0,18,10,0,16,7,0,22,6,0,19,4,0,22,6,0,19,4,0,22,6,0,19,4,0,0,28,0,2,21,0,22,6,0,19,4,0,22,6,0,19,4,0,0,28,0,0,21,0,0,28,0,0,21,0,5,23,0,6,17,0,22,6,0,19,4,0,21,4,3,17,3,2
2017-07-18T23:59:59Z,21,28,22,17,28,21,21,16,4,3,0,0,0,0,0,0,0,28,0,21,0,28,0,21,0,0,0,0,0,0,0,0,14,10,4,13,6,3,18,10,0,16,7,0,22,6,0,19,4,0,17,11,0,15,8,0,22,6,0,19,4,0,22,6,0,19,4,0,22,6,0,19,4,0,0,28,0,2,21,0,22,6,0,19,4,0,22,6,0,19,4,0,0,28,0,0,21,0,0,28,0,0,21,0,4,24,0,5,18,0,22,6,0,19,4,0,22,3,3,17,2,2
2017-07-19T23:59:59Z,21,28,22,17,28,21,22,17,6,5,0,0,0,0,0,0,0,28,0,21,0,28,0,21,0,0,0,0,0,0,0,0,14,10,4,13,6,3,18,10,0,16,7,0,22,6,0,19,4,0,18,10,0,16,7,0,22,6,0,19,4,0,22,6,0,19,4,0,22,6,0,19,4,0,0,28,0,2,21,0,22,6,0,19,4,0,22,6,0,19,4,0,0,28,0,0,21,0,0,28,0,0,21,0,4,24,0,5,18,0,22,6,0,19,4,0,20,5,3,16,4,2
2017-07-20T23:59:58Z,21,28,22,17,28,21,21,16,6,5,0,0,0,0,0,0,0,28,0,21,0,28,0,21,0,0,0,0,0,0,0,0,14,10,4,13,6,3,18,10,0,16,7,0,22,6,0,19,4,0,17,11,0,15,8,0,22,6,0,19,4,0,22,6,0,19,4,0,22,6,0,19,4,0,0,28,0,2,21,0,22,6,0,19,4,0,22,6,0,19,4,0,0,28,0,0,21,0,0,28,0,0,21,0,4,24,0,5,18,0,22,6,0,19,4,0,21,4,3,17,3,2
2017-07-21T23:59:59Z,21,29,23,17,29,21,22,16,6,4,0,0,0,0,0,0,0,29,0,21,0,29,0,21,0,0,0,0,0,0,0,0,14,10,5,13,6,3,18,11,0,16,7,0,23,6,0,19,4,0,18,11,0,16,7,0,23,6,0,19,4,0,23,6,0,19,4,0,23,6,0,19,4,0,0,29,0,2,21,0,23,6,0,19,4,0,23,6,0,19,4,0,0,29,0,0,21,0,0,29,0,0,21,0,5,24,0,5,18,0,23,6,0,19,4,0,22,3,4,17,2,2
2017-07-22T23:59:59Z,21,28,22,17,28,21,21,16,5,4,0,0,0,0,0,0,0,28,0,21,0,28,0,21,0,0,0,0,0,0,0,0,14,10,4,13,6,3,18,10,0,16,7,0,22,6,0,19,4,0,18,10,0,16,7,0,22,6,0,19,4,0,22,6,0,19,4,0,22,6,0,19,4,0,0,28,0,2,21,0,22,6,0,19,4,0,22,6,0,19,4,0,0,28,0,0,21,0,0,28,0,0,21,0,4,24,0,5,18,0,22,6,0,19,4,0,21,4,3,17,3,2
2017-07-23T23:59:58Z,21,28,22,17,28,21,22,17,5,4,0,0,0,0,0,0,0,28,0,21,0,28,0,21,0,0,0,0,0,0,0,0,14,10,4,13,6,3,18,10,0,16,7,0,22,6,0,19,4,0,17,11,0,15,8,0,22,6,0,19,4,0,22,6,0,19,4,0,22,6,0,19,4,0,0,28,0,2,21,0,22,6,0,19,4,0,22,6,0,19,4,0,0,28,0,0,21,0,0,28,0,0,21,0,4,24,0,5,18,0,22,6,0,19,4,0,22,3,3,17,2,2
2017-07-24T23:59:59Z,21,28,22,17,28,21,21,16,5,4,0,0,0,0,0,0,0,28,0,21,0,28,0,21,0,0,0,0,0,0,0,0,14,10,4,13,6,3,18,10,0,16,7,0,22,6,0,19,4,0,17,11,0,15,8,0,22,6,0,19,4,0,22,6,0,19,4,0,22,6,0,19,4,0,0,28,0,2,21,0,22,6,0,19,4,0,22,6,0,19,4,0,0,28,0,0,21,0,0,28,0,0,21,0,4,24,0,5,18,0,22,6,0,19,4,0,22,3,3,17,2,2
2017-07-25T23:59:59Z,21,28,22,17,28,21,21,16,5,4,0,0,0,0,0,0,0,28,0,21,0,28,0,21,0,0,0,0,0,0,0,0,14,10,4,13,6,3,18,10,0,16,7,0,22,6,0,19,4,0,17,11,0,15,8,0,22,6,0,19,4,0,22,6,0,19,4,0,22,6,0,19,4,0,0,28,0,2,21,0,22,6,0,19,4,0,22,6,0,19,4,0,0,28,0,0,21,0,0,28,0,0,21,0,4,24,0,5,18,0,22,6,0,19,4,0,21,4,3,17,3,2
2017-07-26T23:59:59Z,21,28,22,17,28,21,21,16,6,5,0,0,0,0,0,0,0,28,0,21,0,28,0,21,0,0,0,0,0,0,0,0,14,10,4,13,6,3,18,10,0,16,7,0,22,6,0,19,4,0,17,11,0,15,8,0,22,6,0,19,4,0,22,6,0,19,4,0,22,6,0,19,4,0,0,28,0,2,21,0,22,6,0,19,4,0,22,6,0,19,4,0,0,28,0,0,21,0,0,28,0,0,21,0,5,23,0,6,17,0,22,6,0,19,4,0,21,4,3,17,3,2
2017-07-27T23:59:58Z,21,29,23,17,29,21,22,16,6,4,0,0,0,0,0,0,0,29,0,21,0,29,0,21,0,0,0,0,0,0,0,0,14,10,5,13,6,3,18,11,0,16,7,0,23,6,0,19,4,0,18,11,0,16,7,0,23,6,0,19,4,0,23,6,0,19,4,0,23,6,0,19,4,0,0,29,0,2,21,0,23,6,0,19,4,0,23,6,0,19,4,0,0,29,0,0,21,0,0,29,0,0,21,0,5,24,0,5,18,0,23,6,0,19,4,0,22,3,4,17,2,2
2017-07-28T23:59:59Z,21,28,22,17,28,21,20,15,5,4,0,0,0,0,0,0,0,28,0,21,0,28,0,21,0,0,0,0,0,0,0,0,14,10,4,13,6,3,18,10,0,16,7,0,22,6,0,19,4,0,18,10,0,16,7,0,22,6,0,19,4,0,22,6,0,19,4,0,22,6,0,19,4,0,0,28,0,2,21,0,22,6,0,19,4,0,22,6,0,19,4,0,0,28,0,0,21,0,0,28,0,0,21,0,5,23,0,6,17,0,22,6,0,19,4,0,21,4,3,17,3,2
2017-07-29T23:59:59Z,21,28,22,17,28,21,21,16,5,4,0,0,0,0,0,0,0,28,0,21,0,28,0,21,0,0,0,0,0,0,0,0,14,10,4,13,6,3,18,10,0,16,7,0,22,6,0,19,4,0,18,10,0,16,7,0,22,6,0,19,4,0,22,6,0,19,4,0,22,6,0,19,4,0,0,28,0,2,21,0,22,6,0,19,4,0,22,6,0,19,4,0,0,28,0,0,21,0,0,28,0,0,21,0,4,24,0,5,18,0,22,6,0,19,4,0,22,3,3,17,2,2
2017-07-30T23:59:59Z,21,28,22,17,28,21,21,16,6,5,0,0,0,0,0,0,0,28,0,21,0,28,0,21,0,0,0,0,0,0,0,0,14,10,4,13,6,3,18,10,0,16,7,0,22,6,0,19,4,0,18,10,0,16,7,0,22,6,0,19,4,0,22,6,0,19,4,0,22,6,0,19,4,0,0,28,0,2,21,0,21,6,1,18,4,1,22,6,0,19,4,0,0,28,0,0,21,0,0,28,0,0,21,0,4,24,0,5,18,0,22,6,0,19,4,0,22,3,3,17,2,2
2017-07-31T23:59:59Z,21,29,23,17,29,21,22,16,6,4,0,0,0,0,0,0,0,29,0,21,0,29,0,21,0,0,0,0,0,0,0,0,14,10,5,13,6,3,18,11,0,16,7,0,23,6,0,19,4,0,18,11,0,16,7,0,23,6,0,19,4,0,23,6,0,19,4,0,23,6,0,19,4,0,0,29,0,2,21,0,23,6,0,19,4,0,23,6,0,19,4,0,0,29,0,0,21,0,0,29,0,0,21,0,5,24,0,5,18,0,23,6,0,19,4,0,22,3,4,17,2,2
2017-08-01T23:59:59Z,20,27,21,16,27,20,20,15,5,4,0,0,0,0,0,0,0,27,0,20,0,27,0,20,0,0,0,0,0,0,0,0,13,10,4,12,6,3,17,10,0,15,7,0,21,6,0,18,4,0,16,11,0,14,8,0,21,6,0,18,4,0,21,6,0,18,4,0,21,6,0,18,4,0,0,27,0,2,20,0,21,6,0,18,4,0,21,6,0,18,4,0,0,27,0,0,20,0,0,27,0,0,20,0,4,23,0,5,17,0,21,6,0,18,4,0,21,3,3,16,2,2
2017-08-02T23:59:59Z,21,29,23,17,29,21,22,16,5,4,0,0,0,0,0,0,2,27,1,20,0,29,0,21,0,0,0,0,0,0,0,0,12,12,5,11,7,4,16,13,0,14,9,0,21,8,0,18,5,0,17,12,0,15,8,0,21,8,0,18,5,0,21,8,0,18,5,0,21,8,0,18,5,0,0,29,0,2,21,0,21,8,0,18,5,0,21,8,0,18,5,0,0,29,0,0,21,0,0,29,0,0,21,0,4,25,0,5,18,0,21,8,0,18,5,0,23,3,3,17,2,2
2017-08-03T23:59:59Z,21,30,24,17,30,21,23,16,5,3,0,0,0,0,0,0,2,28,1,20,0,30,0,21,0,0,0,0,0,0,0,0,13,12,5,12,7,3,17,13,0,15,8,0,22,8,0,18,5,0,17,13,0,15,8,0,22,8,0,18,5,0,22,8,0,18,5,0,22,8,0,18,5,0,0,30,0,2,21,0,22,8,0,18,5,0,22,8,0,18,5,0,0,30,0,0,21,0,0,30,0,0,21,0,5,25,0,5,18,0,22,8,0,18,5,0,23,3,4,17,2,2
2017-08-04T23:59:59Z,20,28,23,17,28,20,23,17,6,4,0,0,0,0,0,0,0,28,0,20,0,28,0,20,0,0,0,0,0,0,0,0,13,10,5,12,6,3,17,11,0,15,7,0,22,6,0,18,4,0,17,11,0,15,7,0,22,6,0,18,4,0,22,6,0,18,4,0,22,6,0,18,4,0,0,28,0,2,20,0,22,6,0,18,4,0,22,6,0,18,4,0,0,28,0,0,20,0,0,28,0,0,20,0,5,23,0,5,17,0,22,6,0,18,4,0,21,3,4,16,3,2
2017-08-05T23:59:59Z,21,29,24,18,29,21,23,17,5,4,0,0,0,0,0,0,2,27,1,20,0,29,0,21,0,0,0,0,0,0,0,0,13,12,4,12,7,3,17,12,0,15,8,0,21,8,0,18,5,0,17,12,0,15,8,0,21,8,0,18,5,0,21,8,0,18,5,0,21,8,0,18,5,0,0,29,0,2,21,0,21,8,0,18,5,0,21,8,0,18,5,0,0,29,0,0,21,0,0,29,0,0,21,0,4,25,0,5,18,0,21,8,0,18,5,0,23,3,3,17,2,2
2017-08-06T23:59:59Z,21,30,25,18,29,21,24,17,6,4,0,0,0,0,0,0,2,28,1,20,0,30,0,21,0,0,0,0,0,0,0,0,13,12,5,12,7,3,17,13,0,15,8,0,22,8,0,18,5,0,17,13,0,15,8,0,22,8,0,18,5,0,22,8,0,18,5,0,22,8,0,18,5,0,0,30,0,2,21,0,22,8,0,18,5,0,22,8,0,18,5,0,0,30,0,0,21,0,0,30,0,0,21,0,6,24,0,6,17,0,22,8,0,18,5,0,23,3,4,17,2,2
2017-08-07T23:59:59Z,21,30,25,18,30,21,23,16,6,4,0,0,0,0,0,0,2,28,1,20,0,30,0,21,0,0,0,0,0,0,0,0,13,12,5,12,7,3,17,13,0,15,8,0,22,8,0,18,5,0,17,13,0,15,8,0,22,8,0,18,5,0,22,8,0,18,5,0,22,8,0,18,5,0,0,30,0,2,21,0,22,8,0,18,5,0,22,8,0,18,5,0,0,30,0,0,21,0,0,30,0,0,21,0,5,25,0,5,18,0,21,9,0,17,6,0,23,3,4,17,2,2
2017-08-08T23:59:59Z,20,27,22,17,27,20,21,16,5,4,0,0,0,0,0,0,0,27,0,20,0,27,0,20,0,0,0,0,0,0,0,0,12,10,5,11,6,4,16,11,0,14,8,0,21,6,0,18,4,0,17,10,0,15,7,0,21,6,0,18,4,0,21,6,0,18,4,0,21,6,0,18,4,0,0,27,0,2,20,0,21,6,0,18,4,0,21,6,0,18,4,0,0,27,0,0,20,0,0,27,0,0,20,0,4,23,0,5,17,0,19,8,0,17,5,0,20,4,3,16,3,2
2017-08-09T23:59:58Z,21,30,25,18,30,21,24,17,6,4,0,0,0,0,0,0,2,28,1,20,0,30,0,21,0,0,0,0,0,0,0,0,13,12,5,12,7,3,17,13,0,15,8,0,22,8,0,18,5,0,17,13,0,15,8,0,22,8,0,18,5,0,22,8,0,18,5,0,22,8,0,18,5,0,0,30,0,2,21,0,22,8,0,18,5,0,22,8,0,18,5,0,0,30,0,0,21,0,0,30,0,0,21,0,5,25,0,5,18,0,21,9,0,18,6,0,23,3,4,17,2,2
2017-08-10T23:59:59Z,21,29,24,18,29,21,23,17,5,4,0,0,0,0,0,0,2,27,1,20,0,29,0,21,0,0,0,0,0,0,0,0,13,12,4,12,7,3,17,12,0,15,8,0,21,8,0,18,5,0,17,12,0,15,8,0,21,8,0,18,5,0,21,8,0,18,5,0,21,8,0,18,5,0,0,29,0,2,21,0,21,8,0,18,5,0,21,8,0,18,5,0,0,29,0,0,21,0,0,29,0,0,21,0,5,24,0,6,17,0,19,10,0,17,7,0,22,4,3,17,3,2
2017-08-11T23:59:59Z,20,27,22,17,27,20,21,16,5,4,0,0,0,0,0,0,0,27,0,20,0,27,0,20,0,0,0,0,0,0,0,0,13,10,4,12,6,3,17,10,0,15,7,0,21,6,0,18,4,0,17,10,0,15,7,0,21,6,0,18,4,0,21,6,0,18,4,0,21,6,0,18,4,0,0,27,0,2,20,0,21,6,0,18,4,0,21,6,0,18,4,0,0,27,0,0,20,0,0,27,0,0,20,0,4,23,0,5,17,0,20,7,0,17,5,0,21,3,3,16,2,2
2017-08-12T23:59:59Z,20,27,22,17,27,20,20,15,5,4,0,0,0,0,0,0,0,27,0,20,0,27,0,20,0,0,0,0,0,0,0,0,13,10,4,12,6,3,17,10,0,15,7,0,21,6,0,18,4,0,17,10,0,15,7,0,21,6,0,18,4,0,21,6,0,18,4,0,21,6,0,18,4,0,0,27,0,2,20,0,21,6,0,18,4,0,21,6,0,18,4,0,0,27,0,0,20,0,0,27,0,0,20,0,4,23,0,5,17,0,20,7,0,18,5,0,21,3,3,16,2,2
2017-08-13T23:59:59Z,21,30,25,18,30,21,24,17,6,4,0,0,0,0,0,0,2,28,1,20,0,30,0,21,0,0,0,0,0,0,0,0,13,12,5,12,7,3,17,13,0,15,8,0,22,8,0,18,5,0,17,13,0,15,8,0,22,8,0,18,5,0,22,8,0,18,5,0,22,8,0,18,5,0,0,30,0,2,21,0,22,8,0,18,5,0,22,8,0,18,5,0,0,30,0,0,21,0,0,30,0,0,21,0,5,25,0,5,18,0,21,9,0,18,6,0,23,3,4,17,2,2
2017-08-14T23:59:59Z,21,29,24,18,29,21,23,17,5,4,0,0,0,0,0,0,2,27,1,20,0,29,0,21,0,0,0,0,0,0,0,0,13,12,4,12,7,3,17,12,0,15,8,0,21,8,0,18,5,0,17,12,0,15,8,0,21,8,0,18,5,0,21,8,0,18,5,0,21,8,0,18,5,0,0,29,0,2,21,0,21,8,0,18,5,0,21,8,0,18,5,0,0,29,0,0,21,0,0,29,0,0,21,0,4,25,0,5,18,0,21,8,0,18,5,0,23,3,3,17,3,2
2017-08-15T23:59:59Z,21,29,24,18,29,21,23,17,5,4,0,0,0,0,0,0,0,29,0,21,0,29,0,21,0,0,0,0,0,0,0,0,13,10,6,12,6,4,17,12,0,15,8,0,23,6,0,19,4,0,17,12,0,15,8,0,23,6,0,19,4,0,23,6,0,19,4,0,23,6,0,19,4,0,0,29,0,2,21,0,23,6,0,19,4,0,23,6,0,19,4,0,0,29,0,0,21,0,0,29,0,0,21,0,7,22,0,7,16,0,22,7,0,19,5,0,21,3,5,16,2,3
2017-08-16T23:59:59Z,22,33,28,19,33,22,27,18,9,5,0,0,0,0,0,0,2,31,1,21,0,33,0,22,0,0,0,0,0,0,0,0,13,12,8,12,7,4,17,16,0,15,9,0,25,8,0,19,5,0,17,16,0,15,9,0,25,8,0,19,5,0,25,8,0,19,5,0,25,8,0,19,5,0,0,33,0,2,22,0,25,8,0,19,5,0,25,8,0,19,5,0,0,33,0,0,22,0,0,33,0,0,22,0,9,24,0,7,17,0,25,8,0,19,5,0,22,4,7,17,3,3
2017-08-17T23:59:59Z,22,31,26,19,31,22,25,18,8,6,0,0,0,0,0,0,2,29,1,21,0,31,0,22,0,0,0,0,0,0,0,0,13,12,6,12,7,4,17,14,0,15,9,0,23,8,0,19,5,0,17,14,0,15,9,0,23,8,0,19,5,0,23,8,0,19,5,0,23,8,0,19,5,0,0,31,0,2,22,0,23,8,0,19,5,0,23,8,0,19,5,0,0,31,0,0,22,0,0,31,0,0,22,0,7,24,0,7,17,0,23,8,0,19,5,0,21,5,5,16,4,3
2017-08-18T23:59:59Z,22,31,26,19,31,22,25,18,7,5,0,0,0,0,0,0,2,29,1,21,0,31,0,22,0,0,0,0,0,0,0,0,13,12,6,12,7,4,17,14,0,15,9,0,23,8,0,19,5,0,16,15,0,14,10,0,23,8,0,19,5,0,23,8,0,19,5,0,23,8,0,19,5,0,0,31,0,2,22,0,23,8,0,19,5,0,23,8,0,19,5,0,0,31,0,0,22,0,0,31,0,0,22,0,7,24,0,7,17,0,23,8,0,19,5,0,23,3,5,17,2,3
2017-08-19T23:59:59Z,21,29,24,18,29,21,23,17,8,6,0,0,0,0,0,0,0,29,0,21,0,29,0,21,0,0,0,0,0,0,0,0,13,10,6,12,6,4,17,12,0,15,8,0,23,6,0,19,4,0,17,12,0,15,8,0,23,6,0,19,4,0,23,6,0,19,4,0,23,6,0,19,4,0,0,29,0,2,21,0,23,6,0,19,4,0,23,6,0,19,4,0,0,29,0,0,21,0,0,29,0,0,21,0,6,23,0,6,17,0,23,6,0,19,4,0,21,3,5,16,2,3
2017-08-20T23:59:59Z,22,32,27,19,32,22,26,18,8,5,0,0,0,0,0,0,2,30,1,21,0,32,0,22,0,0,0,0,0,0,0,0,13,12,7,12,7,4,17,15,0,15,9,0,24,8,0,19,5,0,17,15,0,15,9,0,24,8,0,19,5,0,24,8,0,19,5,0,24,8,0,19,5,0,0,32,0,2,22,0,24,8,0,19,5,0,24,8,0,19,5,0,0,32,0,0,22,0,0,32,0,0,22,0,7,25,0,6,18,0,24,8,0,19,5,0,23,3,6,17,2,3
2017-08-21T23:59:59Z,21,31,26,18,31,21,26,18,8,5,0,0,0,0,0,0,2,29,1,20,0,31,0,21,0,0,0,0,0,0,0,0,12,12,7,11,7,4,16,15,0,14,9,0,23,8,0,18,5,0,16,15,0,14,9,0,23,8,0,18,5,0,23,8,0,18,5,0,23,8,0,18,5,0,0,31,0,2,21,0,23,8,0,18,5,0,23,8,0,18,5,0,0,31,0,0,21,0,0,31,0,0,21,0,7,24,0,6,17,0,23,8,0,18,5,0,22,3,6,16,2,3
2017-08-22T23:59:59Z,22,32,27,19,32,22,26,18,8,5,0,0,0,0,0,0,2,30,1,21,0,32,0,22,0,0,0,0,0,0,0,0,13,12,7,12,7,4,17,15,0,15,9,0,24,8,0,19,5,0,16,16,0,14,10,0,24,8,0,19,5,0,24,8,0,19,5,0,24,8,0,19,5,0,0,32,0,2,22,0,24,8,0,19,5,0,24,8,0,19,5,0,0,32,0,0,22,0,0,32,0,0,22,0,8,24,0,7,17,0,24,8,0,19,5,0,23,3,6,17,2,3
2017-08-23T23:59:59Z,21,30,25,18,30,21,24,17,8,5,0,0,0,0,0,0,0,30,0,21,0,30,0,21,0,0,0,0,0,0,0,0,13,10,7,12,6,4,17,13,0,15,8,0,24,6,0,19,4,0,17,13,0,15,8,0,24,6,0,19,4,0,24,6,0,19,4,0,24,6,0,19,4,0,0,30,0,2,21,0,24,6,0,19,4,0,24,6,0,19,4,0,0,30,0,0,21,0,0,30,0,0,21,0,7,23,0,6,17,0,24,6,0,19,4,0,21,3,6,16,2,3
2017-08-24T23:59:58Z,22,32,26,19,32,22,23,16,8,5,0,0,0,0,0,0,2,30,1,21,0,32,0,22,0,0,0,0,0,0,0,0,13,12,7,12,7,4,16,16,0,14,10,0,24,8,0,19,5,0,16,16,0,14,10,0,24,8,0,19,5,0,24,8,0,19,5,0,24,8,0,19,5,0,0,32,0,2,22,0,24,8,0,19,5,0,24,8,0,19,5,0,0,32,0,0,22,0,0,32,0,0,22,0,7,25,0,6,18,0,24,8,0,19,5,0,23,3,6,17,2,3
2017-08-25T23:59:59Z,22,31,25,19,31,22,21,15,7,5,0,0,0,0,0,0,2,29,1,21,0,31,0,22,0,0,0,0,0,0,0,0,13,12,6,12,7,4,17,14,0,15,9,0,23,8,0,19,5,0,17,14,0,15,9,0,23,8,0,19,5,0,23,8,0,19,5,0,23,8,0,19,5,0,0,31,0,2,22,0,23,8,0,19,5,0,23,8,0,19,5,0,0,31,0,0,22,0,0,31,0,0,22,0,7,24,0,7,17,0,23,8,0,19,5,0,22,4,5,17,3,3
2017-08-26T23:59:59Z,23,34,28,20,34,23,26,18,9,5,0,0,0,0,0,0,2,32,1,22,0,34,0,23,0,0,0,0,0,0,0,0,13,12,9,12,7,5,17,17,0,15,10,0,26,8,0,20,5,0,17,17,0,15,10,0,26,8,0,20,5,0,26,8,0,20,5,0,26,8,0,20,5,0,0,34,0,2,23,0,26,8,0,20,5,0,26,8,0,20,5,0,0,34,0,0,23,0,0,34,0,0,23,0,10,24,0,8,17,0,26,8,0,20,5,0,23,4,7,17,3,4
2017-08-27T23:59:59Z,23,35,29,20,35,23,26,17,11,6,0,0,0,0,0,0,2,33,1,22,0,35,0,23,0,0,0,0,0,0,0,0,12,12,11,11,7,6,16,19,0,14,11,0,27,8,0,20,5,0,17,18,0,15,10,0,27,8,0,20,5,0,27,8,0,20,5,0,27,8,0,20,5,0,0,35,0,2,23,0,27,8,0,20,5,0,27,8,0,20,5,0,0,35,0,0,23,0,0,35,0,0,23,0,10,25,0,7,18,0,27,8,0,20,5,0,23,4,8,17,3,4
2017-08-28T23:59:59Z,22,32,27,19,32,22,24,16,10,6,0,0,0,0,0,0,0,32,0,22,0,32,0,22,0,0,0,0,0,0,0,0,13,10,9,12,6,5,17,15,0,15,9,0,26,6,0,20,4,0,17,15,0,15,9,0,26,6,0,20,4,0,26,6,0,20,4,0,26,6,0,20,4,0,0,32,0,2,22,0,26,6,0,20,4,0,26,6,0,20,4,0,0,32,0,0,22,0,0,32,0,0,22,0,9,23,0,7,17,0,26,6,0,20,4,0,20,5,7,16,4,4